Greenville/Spartanburg, SC

1:29 PM EDT on May 23, 2018 (GMT -0400)
Greenville-Spartanburg International

Weather History for KGSP - August, 2013

Change the Weather History Date:

Monday, August 5, 2013

  Actual Average Record
Temperature  
Mean Temperature 77 °F 80 °F  
Max Temperature 85 °F 90 °F 99 °F (1954)
Min Temperature 69 °F 69 °F 56 °F (1985)
Degree Days  
Heating Degree Days 0 0  
Month to date heating degree days 0 0  
Since 1 June heating degree days 0 2  
Since 1 July heating degree days 0 0  
Cooling Degree Days 12 15  
Month to date cooling degree days 70 75  
Year to date cooling degree days 968 1087  
Since 1 June cooling degree days 806 886  
Growing Degree Days 26 (Base 50)    
Moisture  
Dew Point 66 °F    
Average Humidity 71    
Maximum Humidity 87    
Minimum Humidity 55    
Precipitation  
Precipitation 0.00 in 0.16 in 2.57 in (2003)
Month to date precipitation 0.04 0.78  
Year to date precipitation 47.08 28.81  
Snow  
Snow 0.00 in 0.00 in 0.00 in ()
Month to date snowfall 0.0 0.0  
Since 1 June snowfall 0.0 0.0  
Since 1 July snowfall 0.0 0.0  
Snow Depth 0.00 in    
Sea Level Pressure  
Sea Level Pressure 30.01 in    
Wind  
Wind Speed 6 mph (East)    
Max Wind Speed 17 mph    
Max Gust Speed 23 mph    
Visibility 10 miles    
Events      
T = Trace of Precipitation, MM = Missing Value Source: NWS Daily Summary

Daily Weather History Graph

Daily Weather History Graph

Search for Another Location

Airport or City:

Astronomy

Aug. 05, 2013 Rise Set
Actual Time 6:41 AM EDT 8:27 PM EDT
Civil Twilight 6:14 AM EDT 8:54 PM EDT
Nautical Twilight 5:41 AM EDT 9:27 PM EDT
Astronomical Twilight 5:05 AM EDT 10:02 PM EDT
Moon 5:35 AM EDT (8/5) 7:28 PM EDT (8/5)
Length of Visible Light 14h 40m
Length of Day
13h 45m
Waning Crescent, 1% of the Moon is Illuminated
Aug 5
Waning Crescent
Aug 6
New
Aug 14
First Quarter
Aug 20
Full
Aug 28
Last Quarter

Hourly Weather History & Observations

Time (EDT) Temp. Heat Index Dew Point Humidity Pressure Visibility Wind Dir Wind Speed Gust Speed Precip Events Conditions
12:53 AM 72.0 °F - 61.0 °F 68% 30.02 in 10.0 mi NNE 3.5 mph - N/A   Clear
1:53 AM 72.0 °F - 63.0 °F 73% 30.01 in 10.0 mi Calm Calm - N/A   Scattered Clouds
2:53 AM 72.0 °F - 64.0 °F 76% 30.00 in 10.0 mi North 3.5 mph - N/A   Mostly Cloudy
3:53 AM 72.0 °F - 63.0 °F 73% 29.99 in 10.0 mi North 3.5 mph - N/A   Overcast
4:53 AM 71.1 °F - 63.0 °F 75% 30.00 in 6.0 mi NNE 4.6 mph - N/A   Haze
5:53 AM 71.1 °F - 63.0 °F 75% 30.01 in 10.0 mi NNE 4.6 mph - N/A   Overcast
6:53 AM 71.1 °F - 62.1 °F 73% 30.02 in 10.0 mi North 4.6 mph - N/A   Mostly Cloudy
7:53 AM 71.1 °F - 62.1 °F 73% 30.04 in 10.0 mi NNE 5.8 mph - N/A   Scattered Clouds
8:53 AM 72.0 °F - 63.0 °F 73% 30.05 in 7.0 mi NNE 6.9 mph - N/A   Mostly Cloudy
9:53 AM 73.9 °F - 64.0 °F 71% 30.06 in 10.0 mi NE 6.9 mph - N/A   Overcast
10:53 AM 75.9 °F - 66.0 °F 71% 30.06 in 9.0 mi NE 4.6 mph - N/A   Overcast
11:53 AM 79.0 °F - 68.0 °F 69% 30.05 in 9.0 mi NNE 3.5 mph - N/A   Mostly Cloudy
12:53 PM 81.0 °F 84.1 °F 69.1 °F 67% 30.03 in 10.0 mi Variable 4.6 mph - N/A   Mostly Cloudy
1:00 PM 82.4 °F 86.3 °F 69.8 °F 66% 30.06 in 9.0 mi Variable 4.6 mph - N/A   Mostly Cloudy
1:53 PM 82.0 °F 84.9 °F 68.0 °F 62% 30.01 in 10.0 mi SE 8.1 mph - N/A   Mostly Cloudy
2:53 PM 81.0 °F 83.8 °F 68.0 °F 65% 30.00 in 10.0 mi South 8.1 mph - N/A   Mostly Cloudy
3:53 PM 84.0 °F 88.4 °F 70.0 °F 63% 29.99 in 9.0 mi SSE 3.5 mph - N/A   Overcast
4:53 PM 84.0 °F 86.5 °F 66.9 °F 56% 29.97 in 10.0 mi South 12.7 mph - N/A   Scattered Clouds
5:53 PM 82.9 °F 85.8 °F 68.0 °F 60% 29.96 in 10.0 mi South 9.2 mph - N/A   Clear
6:53 PM 81.0 °F 83.3 °F 66.9 °F 62% 29.96 in 10.0 mi South 8.1 mph - N/A   Clear
7:53 PM 77.0 °F - 69.1 °F 76% 29.97 in 10.0 mi South 5.8 mph - N/A   Clear
8:53 PM 75.9 °F - 69.1 °F 79% 29.98 in 10.0 mi South 4.6 mph - N/A   Mostly Cloudy
9:53 PM 73.9 °F - 70.0 °F 87% 29.98 in 10.0 mi SSE 4.6 mph - 0.00 in   Scattered Clouds
10:53 PM 73.9 °F - 70.0 °F 87% 29.98 in 10.0 mi SSE 6.9 mph - N/A   Mostly Cloudy
11:53 PM 75.9 °F - 70.0 °F 82% 29.97 in 10.0 mi South 11.5 mph - N/A   Scattered Clouds